Tracking 31027 objects as of 19-Jul-2025
HD Live streaming from Space Station
objects crossing your sky now

STARLINK-5225

Track STARLINK-5225 now!
10-day predictions
STARLINK-5225 is classified as:


NORAD ID: 54063
Int'l Code: 2022-136N
Perigee: 546.2 km
Apogee: 547.6 km
Inclination: 53.2 °
Period: 95.4 minutes
Semi major axis: 6917 km
RCS: Unknown
Launch date: October 20, 2022
Source: United States (US)
Launch site: AIR FORCE EASTERN TEST RANGE (AFETR)
Your satellite tracking list
LANDSAT 5
Track 1 satellite(s)




NASA's NSSDC Master Catalog

Two Line Element Set (TLE):
1 54063U 22136N   25199.58868616 -.00000136  00000-0  95328-5 0  9999
2 54063  53.2183 314.9728 0001065  88.9619 271.1495 15.08838252151502
Source of the keplerian elements: AFSPC